Regional Weather Roundup
Issued by NWS

Home | Current Version | Previous Version | Graphics & Text | Print | Product List | Glossary On
Versions: 1 2 3 4 5 6 7 8 9 10 11 12 13 14 15 16 17 18 19 20 21 22 23 24 25 26 27 28 29 30 31 32 33 34 35 36 37 38 39 40 41 42 43 44 45 46 47 48 49 50
000
ASUS45 KPSR 271610
RWRAZ

ARIZONA HOURLY REGIONAL WEATHER ROUNDUP
NATIONAL WEATHER SERVICE PHOENIX AZ
900 AM MST TUE SEP 27 2016

NOTE: FAIR INDICATES FEW OR NO CLOUDS BELOW 12,000 FEET WITH NO
SIGNIFICANT WEATHER AND/OR OBSTRUCTIONS TO VISIBILITY.

AZZ001>003-036-271700-
NORTHWEST ARIZONA

CITY           SKY/WX    TMP DP  RH WIND       PRES   REMARKS
BULLHEAD CITY  MOSUNNY   77  48  36 SW6       30.01R
KINGMAN        PTSUNNY   72  38  29 SE12      30.14R
$$

AZZ004>008-015-016-018-271700-
NORTH CENTRAL ARIZONA

CITY           SKY/WX    TMP DP  RH WIND       PRES   REMARKS
GRAND CANYON   MOSUNNY   58  33  39 E8        30.33R
PRESCOTT       CLOUDY    58  53  84 N3        30.24R
FLAGSTAFF      LGT RAIN  48  43  82 CALM      30.34R
PAYSON         MOSUNNY   63  46  55 E9        30.28S
PAGE           SUNNY     66  38  35 NW5       30.24R
$$

AZZ009>014-017-271700-
NORTHEAST ARIZONA

CITY           SKY/WX    TMP DP  RH WIND       PRES   REMARKS
WINSLOW        PTSUNNY   64  37  36 CALM      30.26R
SAINT JOHNS    PTSUNNY   67  43  41 SE12      30.27R
WINDOW ROCK    CLOUDY    59  31  34 CALM      30.37R
SHOW LOW       MOSUNNY   57  45  62 S3        30.32R
$$

AZZ023-271700-
GREATER PHOENIX AREA

CITY           SKY/WX    TMP DP  RH WIND       PRES   REMARKS
PHOENIX        PTSUNNY   78  49  35 NE14      30.00F
BUCKEYE        SUNNY     77  48  36 E22G29    30.02R
GLENDALE       PTSUNNY   79  48  34 NE12      30.03S
LUKE AFB       SUNNY     79  49  34 E12       30.01F
DEER VALLEY    MOSUNNY   79  47  32 NE13G22   30.02F
SCOTTSDALE     SUNNY     80  47  31 E6        30.04F
MESA-FALCON    PTSUNNY  N/A N/A N/A N12G17    29.99F
MESA-GATEWAY   PTSUNNY   75  46  35 E17G23    30.04S
CHANDLER       PTSUNNY   75  48  38 E21       30.03R
$$

AZZ027-028-271700-
SOUTHWEST MARICOPA COUNTY AND PINAL COUNTY

CITY           SKY/WX    TMP DP  RH WIND       PRES   REMARKS
CASA GRANDE    CLOUDY    72  48  43 E20       30.04S
GILA BEND      PTSUNNY   78  49  36 E10       29.96S
$$

AZZ503-504-507>509-271700-
SOUTHEAST ARIZONA

CITY           SKY/WX    TMP DP  RH WIND       PRES   REMARKS
TUCSON         LGT RAIN  62  55  77 E15       30.11F
DAVIS-MONTHAN  LGT RAIN  61  57  88 NE15      30.09F
RYAN FIELD     SUNNY     66  55  68 E23G30    30.08F
NOGALES        PTSUNNY   62  53  72 N9        30.13F
SIERRA VISTA   MOSUNNY   54  52  94 NE7       30.23S
DOUGLAS        PTSUNNY   62  49  62 N5        30.20R
SAFFORD        CLOUDY    63  48  58 SE6       30.21R
$$

AZZ020-021-025-026-031-271700-
SOUTHWEST ARIZONA

CITY           SKY/WX    TMP DP  RH WIND       PRES   REMARKS
YUMA           PTSUNNY   81  50  33 N7        29.92S
$$

CAZ031-033-041-043-047-048-061-271700-
SOUTHERN CALIFORNIA

CITY           SKY/WX    TMP DP  RH WIND       PRES   REMARKS
DOWNTOWN L.A.  MOSUNNY   81  47  30 CALM      29.86R
L.A. AIRPORT   MOSUNNY   85  39  19 E6        29.86R
SAN DIEGO      PTSUNNY   86  49  27 S6        29.87R
BURBANK        SUNNY     78  42  27 SE7       29.89R
ONTARIO        PTSUNNY   79  42  26 N3        29.91R
RIVERSIDE      MOSUNNY   82  47  29 E6        29.91R
PALM SPRINGS   PTSUNNY   78  53  41 NW5       29.97R
EL CENTRO NAS  PTSUNNY   82  50  32 SE7       29.94R
IMPERIAL       MOSUNNY   83  51  33 E7        29.92R
BLYTHE         PTSUNNY   84  50  30 E9        29.96R
NEEDLES        PTSUNNY   80  50  34 SE3       30.01R
$$

NVZ020-UTZ003-271700-
SOUTHERN NEVADA-UTAH

CITY           SKY/WX    TMP DP  RH WIND       PRES   REMARKS
LAS VEGAS      MOSUNNY   77  31  18 CALM      30.06R
SALT LAKE CITY MOSUNNY   62  48  60 SE7       30.23S
$$

NMZ009-TXZ055-271700-
NEW MEXICO-WEST TEXAS

CITY           SKY/WX    TMP DP  RH WIND       PRES   REMARKS
ALBUQUERQUE    CLOUDY    59  35  40 NW5       30.33S
EL PASO        CLOUDY    60  40  47 VRB5      30.28S
$$


........................KEY........................
SKY/WX - SKY CONDITION/WEATHER
TMP    - TEMPERATURE IN FAHRENHEIT
DP     - DEW POINT IN FAHRENHEIT
RH     - RELATIVE HUMIDITY IN PERCENT
WIND   - DIRECTION AND SPEED IN MILES PER HOUR (MPH)
VRB    - VARIABLE WIND DIRECTION
PRES   - MEAN SEA LEVEL PRESSURE IN INCHES OF MERCURY
         F - FALLING PRESSURE   R - RISING PRESSURE
         S - STEADY PRESSURE
VSB    - VISIBILITY IN MILES
HX     - HEAT INDEX IN FAHRENHEIT
WCI    - WIND CHILL INDEX IN FAHRENHEIT
TC     - TEMPERATURE IN CELSIUS WHICH IS ALSO KNOWN AS
         TEMPERATURE IN CENTIGRADE
AFB    - AIR FORCE BASE
         LUKE AFB IS LUKE AIR FORCE BASE
         DAVIS-MONTHAN IS DAVIS-MONTHAN AIR FORCE BASE
NAS    - NAVAL AIR STATION
         EL CENTRO NAS IS EL CENTRO NAVAL AIR STATION
N/A    - NOT AVAILABLE




USA.gov is the U.S. government's official web portal to all federal, state and local government web resources and services.